This is the latest recevied weather packets stored in our database for station/object SP2TMT-10. If no packets are shown the sender has not sent any weather packets the latest 10 day(s).
| Time | Temp. | Humidity | Pressure | Rain* | Wind** | Luminosity | Snow |
|---|---|---|---|---|---|---|---|
| 1777587078 | 20° C | 48% | 1026.5 hPa | - | - | - | - |
| 1777586178 | 20° C | 48% | 1026.5 hPa | - | - | - | - |
| 1777584378 | 20° C | 49% | 1026.5 hPa | - | - | - | - |
| 1777579872 | 19.44° C | 39% | 1026.6 hPa | - | - | - | - |
| 1777578072 | 19.44° C | 39% | 1026.6 hPa | - | - | - | - |
| 1777577172 | 19.44° C | 39% | 1026.7 hPa | - | - | - | - |
| 1777576272 | 19.44° C | 39% | 1026.6 hPa | - | - | - | - |
| 1777571771 | 19.44° C | 40% | 1026.5 hPa | - | - | - | - |
| 1777569065 | 19.44° C | 40% | 1026.5 hPa | - | - | - | - |
| 1777566365 | 19.44° C | 39% | 1026.7 hPa | - | - | - | - |
| 1777565466 | 19.44° C | 39% | 1026.8 hPa | - | - | - | - |
| 1777562765 | 19.44° C | 37% | 1027.3 hPa | - | - | - | - |
| 1777561865 | 19.44° C | 37% | 1027.1 hPa | - | - | - | - |
| 1777560965 | 19.44° C | 37% | 1027.2 hPa | - | - | - | - |
| 1777555559 | 19.44° C | 38% | 1027.8 hPa | - | - | - | - |
| 1777554659 | 19.44° C | 38% | 1028 hPa | - | - | - | - |
| 1777553759 | 19.44° C | 38% | 1028.1 hPa | - | - | - | - |
| 1777551959 | 19.44° C | 39% | 1028.6 hPa | - | - | - | - |
| 1777551058 | 19.44° C | 39% | 1028.6 hPa | - | - | - | - |
| 1777550158 | 19.44° C | 40% | 1028.8 hPa | - | - | - | - |
| 1777548358 | 19.44° C | 42% | 1029.3 hPa | - | - | - | - |
| 1777547458 | 19.44° C | 36% | 1029.4 hPa | - | - | - | - |
| 1777546558 | 19.44° C | 36% | 1029.5 hPa | - | - | - | - |
| 1777545658 | 19.44° C | 36% | 1029.6 hPa | - | - | - | - |
| 1777544758 | 19.44° C | 37% | 1029.8 hPa | - | - | - | - |
* Rain since midnight (hover to see other rain measurements)
** Current wind speed in m/s (hover to see current wind gust speed)